Weather History for Brookings, SD

Change the Weather History Date:

Sunday, March 18, 2012

  Actual Average Record
Temperature  
Mean Temperature 71 °F -  
Max Temperature 82 °F 35 °F 82 °F (2012)
Min Temperature 60 °F 18 °F 8 °F (2013)
Cooling Degree Days 6    
Growing Degree Days 21 (Base 50)    
Moisture  
Dew Point 56 °F    
Average Humidity 65    
Maximum Humidity 88    
Minimum Humidity 32    
Precipitation  
Precipitation 0.00 in - - ()
Sea Level Pressure  
Sea Level Pressure 29.63 in    
Wind  
Wind Speed 18 mph (SSE)    
Max Wind Speed 29 mph    
Max Gust Speed 39 mph    
Visibility 10 miles    
Events      
Averages and records for this station are not official NWS values.
T = Trace of Precipitation, MM = Missing Value Source: NWS Daily Summary

Daily Weather History Graph

Daily Weather History Graph

Search for Another Location

Airport:

Trip Planner

Search our weather history database for the weather conditions in past years. The results will help you decide how hot, cold, wet, or windy it might be!

Date:

Astronomy

Mar. 18, 2012 Rise Set
Actual Time 7:33 AM CDT 7:37 PM CDT
Civil Twilight 7:04 AM CDT 8:06 PM CDT
Nautical Twilight 6:30 AM CDT 8:40 PM CDT
Astronomical Twilight 5:55 AM CDT 9:15 PM CDT
Moon 5:20 AM CDT (3/18) 3:59 PM CDT (3/18)
Length of Visible Light 13h 02m
Length of Day
12h 04m
Waning Crescent, 15% of the Moon is Illuminated
Mar 18
Waning Crescent
Mar 22
New
Mar 30
First Quarter
Apr 6
Full
Apr 13
Last Quarter

Hourly Weather History & Observations

Time (CDT) Temp. Dew Point Humidity Pressure Visibility Wind Dir Wind Speed Gust Speed Precip Events Conditions
12:15 AM 62.6 °F 55.4 °F 77% 29.68 in 10.0 mi SSE 11.5 mph - N/A   Clear
12:35 AM 62.6 °F 55.4 °F 77% 29.68 in 10.0 mi SSE 10.4 mph - N/A   Clear
12:55 AM 62.6 °F 55.4 °F 77% 29.68 in 10.0 mi SSE 11.5 mph - N/A   Clear
1:15 AM 62.6 °F 55.4 °F 77% 29.68 in 10.0 mi SSE 12.7 mph - N/A   Clear
1:35 AM 62.6 °F 55.4 °F 77% 29.68 in 10.0 mi SSE 12.7 mph - N/A   Clear
1:55 AM 64.4 °F 57.2 °F 77% 29.68 in 10.0 mi SSE 17.3 mph - N/A   Clear
2:15 AM 64.4 °F 57.2 °F 77% 29.68 in 10.0 mi SSE 16.1 mph 21.9 mph N/A   Clear
2:35 AM 64.4 °F 57.2 °F 77% 29.68 in 10.0 mi SSE 15.0 mph 20.7 mph N/A   Clear
2:55 AM 62.6 °F 57.2 °F 82% 29.68 in 10.0 mi SSE 17.3 mph - N/A   Clear
3:15 AM 62.6 °F 57.2 °F 82% 29.68 in 10.0 mi SSE 15.0 mph 21.9 mph N/A   Clear
3:35 AM 62.6 °F 57.2 °F 82% 29.67 in 10.0 mi SSE 13.8 mph - N/A   Clear
3:55 AM 60.8 °F 57.2 °F 88% 29.67 in 10.0 mi SSE 13.8 mph - N/A   Clear
4:15 AM 60.8 °F 57.2 °F 88% 29.67 in 10.0 mi SSE 15.0 mph 20.7 mph N/A   Clear
4:55 AM 60.8 °F 57.2 °F 88% 29.66 in 10.0 mi SSE 15.0 mph - N/A   Clear
5:15 AM 60.8 °F 57.2 °F 88% 29.66 in 10.0 mi SSE 13.8 mph 19.6 mph N/A   Clear
5:35 AM 60.8 °F 57.2 °F 88% 29.66 in 10.0 mi SSE 16.1 mph - N/A   Clear
5:55 AM 60.8 °F 57.2 °F 88% 29.66 in 10.0 mi SSE 18.4 mph 23.0 mph N/A   Scattered Clouds
6:15 AM 60.8 °F 57.2 °F 88% 29.66 in 10.0 mi SSE 19.6 mph 24.2 mph N/A   Overcast
6:35 AM 62.6 °F 59.0 °F 88% 29.66 in 10.0 mi South 19.6 mph 26.5 mph N/A   Overcast
6:55 AM 62.6 °F 59.0 °F 88% 29.66 in 10.0 mi South 16.1 mph 27.6 mph N/A   Overcast
7:15 AM 62.6 °F 57.2 °F 82% 29.66 in 10.0 mi South 20.7 mph 24.2 mph N/A   Overcast
7:35 AM 62.6 °F 57.2 °F 82% 29.66 in 10.0 mi South 18.4 mph 24.2 mph N/A   Overcast
7:55 AM 62.6 °F 57.2 °F 82% 29.66 in 10.0 mi South 17.3 mph 24.2 mph N/A   Overcast
8:15 AM 62.6 °F 57.2 °F 82% 29.67 in 10.0 mi South 19.6 mph 25.3 mph N/A   Overcast
8:35 AM 62.6 °F 57.2 °F 82% 29.66 in 10.0 mi SSE 18.4 mph 25.3 mph N/A   Overcast
8:55 AM 62.6 °F 57.2 °F 82% 29.66 in 10.0 mi South 18.4 mph 24.2 mph N/A   Overcast
9:15 AM 64.4 °F 57.2 °F 77% 29.67 in 10.0 mi South 20.7 mph 28.8 mph N/A   Overcast
9:35 AM 64.4 °F 57.2 °F 77% 29.67 in 10.0 mi South 18.4 mph 26.5 mph N/A   Overcast
9:55 AM 64.4 °F 57.2 °F 77% 29.66 in 10.0 mi South 17.3 mph 28.8 mph N/A   Overcast
10:15 AM 66.2 °F 57.2 °F 73% 29.67 in 10.0 mi South 23.0 mph 31.1 mph N/A   Overcast
10:35 AM 66.2 °F 57.2 °F 73% 29.66 in 10.0 mi South 24.2 mph 32.2 mph N/A   Overcast
10:55 AM 66.2 °F 57.2 °F 73% 29.66 in 10.0 mi South 21.9 mph 31.1 mph N/A   Mostly Cloudy
11:15 AM 66.2 °F 57.2 °F 73% 29.66 in 10.0 mi South 21.9 mph 31.1 mph N/A   Mostly Cloudy
11:35 AM 69.8 °F 57.2 °F 64% 29.65 in 10.0 mi South 25.3 mph 33.4 mph N/A   Mostly Cloudy
11:55 AM 69.8 °F 57.2 °F 64% 29.65 in 10.0 mi South 24.2 mph 35.7 mph N/A   Scattered Clouds
12:15 PM 71.6 °F 57.2 °F 60% 29.64 in 10.0 mi South 27.6 mph 33.4 mph N/A   Partly Cloudy
12:35 PM 71.6 °F 57.2 °F 60% 29.64 in 10.0 mi South 27.6 mph 35.7 mph N/A   Partly Cloudy
12:55 PM 73.4 °F 57.2 °F 57% 29.63 in 10.0 mi SSE 26.5 mph 36.8 mph N/A   Clear
1:15 PM 73.4 °F 57.2 °F 57% 29.63 in 10.0 mi South 27.6 mph 36.8 mph N/A   Clear
1:35 PM 73.4 °F 57.2 °F 57% 29.61 in 10.0 mi SSE 25.3 mph 36.8 mph N/A   Clear
1:55 PM 75.2 °F 55.4 °F 50% 29.61 in 10.0 mi SSE 27.6 mph 34.5 mph N/A   Clear
2:15 PM 77.0 °F 55.4 °F 47% 29.61 in 10.0 mi South 26.5 mph 35.7 mph N/A   Clear
2:35 PM 77.0 °F 55.4 °F 47% 29.60 in 10.0 mi South 24.2 mph 38.0 mph N/A   Clear
2:55 PM 78.8 °F 53.6 °F 42% 29.59 in 10.0 mi South 27.6 mph 34.5 mph N/A   Clear
3:15 PM 78.8 °F 53.6 °F 42% 29.58 in 10.0 mi South 28.8 mph 34.5 mph N/A   Clear
3:55 PM 80.6 °F 51.8 °F 37% 29.57 in 10.0 mi SSE 25.3 mph 33.4 mph N/A   Clear
4:15 PM 82.4 °F 50.0 °F 32% 29.57 in 10.0 mi South 25.3 mph 36.8 mph N/A   Clear
4:35 PM 82.4 °F 50.0 °F 32% 29.57 in 10.0 mi South 23.0 mph 36.8 mph N/A   Clear
4:55 PM 82.4 °F 50.0 °F 32% 29.56 in 10.0 mi South 25.3 mph 39.1 mph N/A   Clear
5:15 PM 82.4 °F 51.8 °F 35% 29.56 in 10.0 mi South 24.2 mph 39.1 mph N/A   Clear
5:35 PM 82.4 °F 51.8 °F 35% 29.56 in 10.0 mi South 25.3 mph 29.9 mph N/A   Clear
5:55 PM 80.6 °F 51.8 °F 37% 29.56 in 10.0 mi South 23.0 mph 29.9 mph N/A   Clear
6:15 PM 80.6 °F 51.8 °F 37% 29.56 in 10.0 mi South 20.7 mph 35.7 mph N/A   Clear
6:35 PM 80.6 °F 51.8 °F 37% 29.56 in 10.0 mi South 20.7 mph 29.9 mph N/A   Clear
6:55 PM 78.8 °F 51.8 °F 39% 29.56 in 10.0 mi SSE 21.9 mph 32.2 mph N/A   Clear
7:15 PM 77.0 °F 53.6 °F 44% 29.57 in 10.0 mi SSE 20.7 mph 27.6 mph N/A   Clear
7:35 PM 75.2 °F 53.6 °F 47% 29.57 in 10.0 mi South 17.3 mph 25.3 mph N/A   Clear
7:55 PM 75.2 °F 53.6 °F 47% 29.57 in 10.0 mi SSE 19.6 mph 28.8 mph N/A   Clear
8:15 PM 73.4 °F 53.6 °F 50% 29.58 in 10.0 mi South 20.7 mph 26.5 mph N/A   Clear
8:35 PM 73.4 °F 53.6 °F 50% 29.59 in 10.0 mi South 15.0 mph 26.5 mph N/A   Clear
8:55 PM 71.6 °F 53.6 °F 53% 29.59 in 10.0 mi South 18.4 mph 26.5 mph N/A   Clear
9:15 PM 69.8 °F 55.4 °F 60% 29.60 in 10.0 mi South 18.4 mph 26.5 mph N/A   Clear
9:35 PM 69.8 °F 55.4 °F 60% 29.60 in 10.0 mi South 19.6 mph 25.3 mph N/A   Clear
9:55 PM 68.0 °F 55.4 °F 64% 29.61 in 10.0 mi South 19.6 mph 25.3 mph N/A   Clear
10:35 PM 68.0 °F 55.4 °F 64% 29.60 in 10.0 mi South 18.4 mph 24.2 mph N/A   Clear
10:55 PM 68.0 °F 55.4 °F 64% 29.61 in 10.0 mi South 18.4 mph 25.3 mph N/A   Clear
11:15 PM 66.2 °F 55.4 °F 68% 29.62 in 10.0 mi South 16.1 mph 24.2 mph N/A   Clear
11:35 PM 66.2 °F 55.4 °F 68% 29.62 in 10.0 mi South 15.0 mph 23.0 mph N/A   Clear
11:55 PM 66.2 °F 55.4 °F 68% 29.63 in 10.0 mi South 21.9 mph 28.8 mph N/A   Clear